Location: Ottawa
(45.4167°N, 75.7000°W)
Time: 08:11:14
(UTC-05:00)

OTV 5 (USA 277) - Pass Details

Date: 09 October 2017
Orbit: 404 x 417 km, 43.0° (Epoch: 07 September)

Event Time Altitude Azimuth Distance (km) Brightness Sun altitude
Rises 20:34:14 0° 233° (SW) 2,347 ? -22.9°
Reaches altitude 10° 20:36:29 10° 222° (SW) 1,486 ? -23.3°
Enters shadow 20:37:20 16° 214° (SSW) 1,194 ? -23.4°
